Regional Weather Roundup
Issued by NWS

Home | Current Version | Previous Version | Text Only | Print | Product List | Glossary On
Versions: 1 2 3 4 5 6 7 8 9 10 11 12 13 14 15 16 17 18 19 20 21 22 23 24 25 26 27 28 29 30 31 32 33 34 35 36 37 38 39 40 41 42 43 44 45 46 47 48 49 50
000
ASUS44 KLUB 260810
RWRTX
WEST TEXAS WEATHER ROUNDUP
NATIONAL WEATHER SERVICE LUBBOCK TX
200 AM CST MON JAN 26 2015

NOTE: "FAIR" INDICATES FEW OR NO CLOUDS BELOW 12,000 FEET WITH NO
SIGNIFICANT WEATHER AND/OR OBSTRUCTIONS TO VISIBILITY.

TXZ004-006>008-010-012-014-016-OKZ002-260900-
TEXAS PANHANDLE/OKLAHOMA PANHANDLE

CITY           SKY/WX    TMP DP  RH WIND       PRES   REMARKS
AMARILLO       CLEAR     39  31  72 W12       30.25S WCI  32
BORGER         CLEAR     40  31  70 SW10      30.22S WCI  33
CANADIAN       CLEAR     41  34  77 SW5       30.18F
DALHART        CLEAR     37  29  72 W13       30.25S WCI  29
DUMAS          CLEAR     34  29  82 W15       30.24S WCI  24
GUYMON         CLEAR     40  31  70 W12       30.17F WCI  33
HEREFORD       CLEAR     35  32  88 W9        30.28S WCI  28
PAMPA          CLEAR     36  32  85 W10       30.22S WCI  28
PERRYTON         N/A     34  31  88 W10       30.17F WCI  26
$$

TXZ026-029-035-045-048-260900-
SOUTHERN PANHANDLE/SOUTH PLAINS/ROLLING PLAINS

CITY           SKY/WX    TMP DP  RH WIND       PRES   REMARKS
CHILDRESS      CLEAR     41  32  70 W5        30.22S
SEMINOLE       CLEAR     35  28  78 NW9       30.28F WCI  27
LUBBOCK        CLEAR     33  29  85 W9        30.26F WCI  25
PLAINVIEW      PTCLDY    35  31  86 W9        30.25S WCI  27
SNYDER         PTCLDY   N/A N/A N/A W6        30.27F
$$

TXZ052-054-060>062-072-078-127-140-154-169-260900-
PERMIAN BASIN/CONCHO VALLEY/BIG COUNTRY/EDWARDS PLATEAU

CITY           SKY/WX    TMP DP  RH WIND       PRES   REMARKS
ABILENE        CLEAR     42  29  59 SW7       30.24F
BIG SPRING     CLEAR     38  31  74 N6        30.30S WCI  34
BRADY          CLEAR     39  32  75 W7        30.22S WCI  34
BROWNWOOD      PTCLDY    36  32  87 CALM      30.24S
JUNCTION       CLEAR     35  31  85 W5        30.25F WCI  31
MIDLAND        CLEAR     38  30  73 NW6       30.26F WCI  33
ODESSA         CLEAR     42  27  55 NW5       30.26F
SAN ANGELO     CLEAR     38  33  82 CALM      30.25F
SONORA         PTCLDY    32  30  93 CALM      30.32R
SWEETWATER     CLEAR     46  31  56 W10       30.28S
WINK           PTCLDY    35  27  72 NW5       30.27F WCI  31
$$

TXZ055-058-074-075-080-082-260900-
FAR WEST/SOUTHWEST MOUNTAINS/TRANS PECOS

CITY           SKY/WX    TMP DP  RH WIND       PRES   REMARKS
ALPINE         MOCLDY    32  29  88 SW6       30.38F WCI  26
DRYDEN           N/A     45  33  63 W9        30.27R
EL PASO        MOCLDY    40  30  67 N8        30.30R WCI  34
FORT STOCKTON  MOCLDY    41  32  70 SW13      30.29R
MARFA          CLOUDY    28  25  86 NW5       30.34S WCI  23
PECOS          MOCLDY    34  30  86 W5        30.29F WCI  30
PRESIDIO       FAIR      47  32  56 N9        30.29S
$$

TXZ014-016-019-021>030-083-260900
TEXAS TECH WEST TEXAS MESONET/TEXAS PANHANDLE/NORTHERN SOUTH PLAINS

CITY           SKY/WX    TMP DP  RH WIND       PRES   REMARKS
ABERNATHY 5ENE   N/A     32  30  91 W8        30.27S WCI  25
AMARILLO 9NNE    N/A     27  26  93 S2        30.26R
AMARILLO 7SSE    N/A     40  31  71 W10       30.26S WCI  33
AMHERST 1NE      N/A     38  30  72 W13       30.27S WCI  30
BOOTLEG 11WNW    N/A     37  26  65 W17       30.29F WCI  27
CANADIAN 6E      N/A     34  30  85 NW6       30.16F WCI  29
CAPROCK CYN SP   N/A     44  31  60 W22       30.22S
CHILDRESS 2NNE   N/A     43  34  68 W9        30.21S
CLARENDON 2WSW   N/A     40  31  71 W9        30.22S WCI  34
CLAUDE 12SW      N/A     40  30  67 W14       30.24R WCI  32
DIMMITT 2NE      N/A     40  29  66 W13       30.27S WCI  32
FLOYDADA 2NNE    N/A     33  30  89 W10       30.25F WCI  24
FRIONA 2NE       N/A     34  29  80 W10       30.29S WCI  26
GOODLETT 3W      N/A     37  32  82 W6        30.21S WCI  32
HART 3N          N/A     35  30  83 W10       30.27S WCI  27
HEREFORD 2NW     N/A     35  29  79 W10       30.27S WCI  27
MCLEAN 1E        N/A     42  32  67 W13       30.18S
MEMPHIS 1NE      N/A     39  33  78 SW5       30.21S
MULESHOE 2SSW    N/A     31  28  88 W7        30.29R WCI  24
OLTON 6S         N/A     35  30  79 W9        30.27S WCI  28
PALO DURO SP     N/A     38  29  70 W18       30.25F WCI  29
PAMPA 2E         N/A     39  32  76 W14       30.20S WCI  31
PLAINVIEW 1S     N/A     36  31  85 W9        30.25F WCI  29
SILVERTON 7ESE   N/A     34  30  87 W12       30.25S WCI  25
TULIA 2ENE       N/A     36  31  82 W14       30.25S WCI  27
TURKEY 2WSW      N/A     45  33  64 W15       30.21F
UMBARGER 3NNE    N/A     35  29  79 W9        30.26F WCI  28
$$

TXZ033>036-039>041-045>048-260900
TEXAS TECH WEST TEXAS MESONET/SOUTH PLAINS

CITY           SKY/WX    TMP DP  RH WIND       PRES   REMARKS
AIKEN 3WSW       N/A     29  28  93 W6        30.26F WCI  23
ANDREWS 2NE      N/A     40  27  59 NW3       30.27F
ANTON 6SSW       N/A     36  31  81 W10       30.27S WCI  28
BROWNFIELD 2S    N/A     37  28  72 W10       30.27F WCI  29
DENVR CTY 7WNW   N/A     34  26  73 W9        30.28F WCI  26
GAIL 2ESE        N/A     41  30  64 NW6       30.26F
LAMESA 2SE       N/A     37  30  75 NW5       30.28F WCI  33
LEVELLAND 4S     N/A     36  28  74 W8        30.26F WCI  29
LUBBOCK 3WNW     N/A     37  30  75 W7        30.27F WCI  32
MORTON 1ENE      N/A     34  29  81 W10       30.27F WCI  26
ODONNELL 1N      N/A     32  29  87 W7        30.27F WCI  26
PLAINS 3N        N/A     34  27  75 W8        30.28F WCI  27
RALLS 1SE        N/A     38  30  74 W8        30.26F WCI  32
REESE CENTER     N/A     33  30  86 W10       30.26F WCI  25
SEAGRAVES 1SW    N/A     31  27  84 NW6       30.28F WCI  26
SEMINOLE 2NNE    N/A     34  28  76 NW6       30.27F WCI  29
SLATON 2NE       N/A     39  30  70 W8        30.26F WCI  34
SNYDER 3E        N/A     42  31  63 W7        30.25F
SUNDOWN 8SW      N/A     35  27  72 W8        30.27F WCI  29
TAHOKA 3NNE      N/A     33  29  82 W7        30.25F WCI  27
WOLFFORTH 6SSW   N/A     34  33  98 W8        30.26F WCI  27
$$

TXZ031-032-036>038-042>044-260900-
TEXAS TECH WEST TEXAS MESONET/ROLLING PLAINS

CITY           SKY/WX    TMP DP  RH WIND       PRES   REMARKS
ASPERMONT 3NE    N/A     41  31  67 W7        30.23F
FLUVANNA 3WNW    N/A     39  29  67 SW9       30.26F WCI  33
GRAHAM 5SSW      N/A     40  30  67 W12       30.26F WCI  33
GUTHRIE 10WSW    N/A     43  32  64 SW7       30.23S
HASKELL 1NW      N/A     41  32  71 W8        30.23R
JAYTON 1SSE      N/A     38  31  77 W8        30.24S WCI  32
KNOX CITY 3NW    N/A     38  31  77 SW6       30.23S WCI  33
LK A HENRY 1NW   N/A     38  32  78 W6        30.25F WCI  33
NORTHFIELD 1S    N/A     40  34  77 SW9       30.22F WCI  34
ODELL 4ENE       N/A     35  31  87 SW6       30.22S WCI  30
PADUCAH 10SW     N/A     44  32  63 W15       30.22S
POST 1NE         N/A     43  31  60 W10       30.25F
RRING SPRGS 3N   N/A     42  33  69 W15       30.23S
SEYMOUR 3NW      N/A     36  31  81 W2        30.22F
SPUR 1W          N/A     41  32  69 W6        30.24S
WEINERT 2NNE     N/A     40  32  73 W6        30.23R
WHITE RVR 6NE    N/A     46  30  54 W14       30.24F
$$

TXZ052-054-060>062-072-078-127-140-154-169-260900-
TEXAS TECH WEST TEXAS MESONET/PERMIAN BASIN/
CONCHO VALLEY/BIG COUNTRY/EDWARDS PLATEAU

CITY           SKY/WX    TMP DP  RH WIND       PRES   REMARKS
COYANOSA 2N      N/A     36  32  83 W8        30.30S WCI  30
JUNCTION 1SSW    N/A     33  30  88 S6        30.27S WCI  28
MERTZON 3NNE     N/A     33  30  90 S3        30.28S
SAN ANGELO 7NW   N/A     39  31  74 W6        30.25F WCI  35
STRLNG CT 4WSW   N/A     30  28  89 CALM      30.27F
ST LAWRNCE 5SW   N/A     36  29  75 NW6       30.26F WCI  31
SWEETWATR 11SW   N/A     42  29  59 SW5       30.26F
WALL 1E          N/A     38  32  78 SW7       30.26S WCI  33
$$

TXZ055-058-074-075-080-082-260900-
TEXAS TECH WEST TEXAS MESONET/FAR WEST/SOUTHWEST MOUNTAINS/TRANS PECOS

CITY           SKY/WX    TMP DP  RH WIND       PRES   REMARKS
PRSMN GAP BBNP   N/A     47  31  52 S3        30.29S
GUADLPE MTN NP   N/A     34  22  61 W3        30.32S
$$


USA.gov is the U.S. government's official web portal to all federal, state and local government web resources and services.